Home   Weather   Helena   Past weeks

Flag for USA Past Weather in Helena, Montana, USA — Yesterday and Last 2 Weeks

Now
49 °F

Clear.


Feels Like: 48 °F
Forecast: 48 / 80 °F
Wind: 3 mph from Southwest

Location: Helena Regional Airport

Current Time: May 23, 2017 at 5:00:17 am

Latest Report: May 23, 2017 at 3:53 am


Visibility: 10 mi

Pressure: 30.19 "Hg (25.98 "Hg at 1239m altitude)

Humidity: 74%

Dew Point: 41 °F

Location of HelenaLocation

Past Weather in Helena — Graph

°F

Helena Temperature Yesterday

Maximum temperature yesterday: 74 °F (at 2:53 pm)
Minimum temperature yesterday: 45 °F (at 3:53 am)
Average temperature yesterday: 61 °F

High & Low Weather Summary for the Past Weeks

 TemperatureHumidityPressure
High85 °F (May 12, 2:53 pm)100% (May 21, 1:53 am)30.34 "Hg (May 21, 1:53 am)
Low34 °F (May 8, 5:53 am)16% (May 12, 2:53 pm)29.47 "Hg (May 12, 2:53 pm)
Average53 °F59%29.98 "Hg
* Reported May 8 3:53 am — May 23 3:53 am, Helena. Weather by CustomWeather, © 2017

Note: Actual official high and low records may vary slightly from our data, if they occured in-between our weather recording intervals... More about our weather records

Advertising

Helena Weather History for the Previous 24 Hours

Scroll right to see more
 ConditionsComfort  
Time TempWeatherWind HumidityBarometerVisibility
3:53 am
Tue, May 23
49 °FClear.3 mph74%30.19 "Hg10 mi
2:53 am48 °FClear.No wind80%30.19 "Hg10 mi
1:53 am51 °FClear.No wind69%30.19 "Hg10 mi
12:53 am54 °FClear.No wind64%30.19 "Hg10 mi
11:53 pm
Mon, May 22
53 °FClear.No wind72%30.19 "Hg10 mi
10:53 pm59 °FClear.7 mph49%30.18 "Hg10 mi
9:53 pm64 °FClear.5 mph41%30.18 "Hg10 mi
8:53 pm66 °FPartly sunny.3 mph42%30.19 "Hg10 mi
7:53 pm71 °FMostly cloudy.7 mph30%30.20 "Hg10 mi
6:53 pm73 °FOvercast.10 mph28%30.21 "Hg10 mi
5:53 pm70 °FMostly cloudy.8 mph31%30.20 "Hg10 mi
4:53 pm72 °FPartly sunny.15 mph28%30.20 "Hg10 mi
3:53 pm73 °FSunny.10 mph27%30.21 "Hg10 mi
2:53 pm74 °FSunny.13 mph26%30.19 "Hg10 mi
1:53 pm73 °FSunny.10 mph28%30.19 "Hg10 mi
12:53 pm71 °FSunny.9 mph29%30.20 "Hg10 mi
12:03 pm70 °FSunny.7 mph29%30.21 "Hg10 mi
10:53 am68 °FSunny.5 mph36%30.20 "Hg10 mi
9:53 am63 °FSunny.5 mph41%30.22 "Hg10 mi
8:53 am55 °FSunny.No wind62%30.24 "Hg10 mi
7:53 am50 °FSunny.5 mph71%30.25 "Hg10 mi
6:53 am46 °FSunny.No wind83%30.23 "Hg10 mi
5:53 am47 °FSunny.3 mph77%30.22 "Hg10 mi
Weather by CustomWeather, © 2017

See weather overviewHow to use our weather pages